Regional Weather Roundup
Issued by NWS

Home | Current Version | Previous Version | Graphics & Text | Print | Product List | Glossary On
Versions: 1 2 3 4 5 6 7 8 9 10 11 12 13 14 15 16 17 18 19 20 21 22 23 24 25 26 27 28 29 30 31 32 33 34 35 36 37 38 39 40 41 42 43 44 45 46 47 48 49 50
000
ASUS43 KMPX 120310
RWRMN
WEATHER ROUNDUP FOR MINNESOTA
NATIONAL WEATHER SERVICE TWIN CITIES/CHANHASSEN MN
1000 PM CDT FRI JUL 11 2014


NOTE: "FAIR" INDICATES FEW OR NO CLOUDS BELOW 12,000 FEET WITH NO
SIGNIFICANT WEATHER AND/OR OBSTRUCTIONS TO VISIBILITY. N/A MEANS
CURRENT SKY AND/OR WEATHER CONDITIONS ARE NOT AVAILABLE.

MNZ060>063-068>070-120400-
   Twin Cities Metro

CITY           SKY/WX    TMP DP  RH WIND       PRES   REMARKS
TWIN CITIES    PTCLDY    76  71  85 SE6       29.99R
ST PAUL        CLOUDY    75  70  84 SE6       29.99R
CRYSTAL        CLEAR     77  70  79 CALM      29.98R
BLAINE         MOCLDY    75  72  88 CALM      30.00R
LAKEVILLE      PTCLDY    72  70  94 S3        30.00S
EDEN PRAIRIE   CLEAR     75  70  84 SE5       29.98R
SOUTH ST PAUL  MOCLDY    76  69  78 CALM      29.99S
LAKE ELMO      CLOUDY    73  70  88 SE5       30.01R
$$
MNZ001>005-007-008-013>017-022>024-027-028-120400-
   Northwest Minnesota

CITY           SKY/WX    TMP DP  RH WIND       PRES   REMARKS
BEMIDJI        CLEAR     67  55  63 W5        29.99R
HALLOCK        MOCLDY    70  55  60 W7        29.98R
ROSEAU         CLEAR     68  57  68 W5        29.97R
WARROAD        CLEAR     70  57  64 W6        29.96R
THIEF RVR FALL CLEAR     70  54  56 NW8       29.99R
CROOKSTON      CLEAR     66  57  72 NW7       30.00R
FOSSTON        CLEAR     70  55  60 NW6       30.00R
DETROIT LAKES  CLEAR     73  61  64 NW6       30.02R
MOORHEAD       CLEAR     72  63  73 N5        30.00R
PARK RAPIDS    CLEAR     70  64  81 NW3       30.00R
$$
MNZ006-009>011-018-025>026-120400-
   North Central Minnesota

CITY           SKY/WX    TMP DP  RH WIND       PRES   REMARKS
BAUDETTE       CLEAR     67  54  63 NW5       29.96R
FLAG ISLAND    PTCLDY    72  57  60 NW9       29.93R
INTL FALLS     CLEAR     66  55  67 W7        29.92R
WASKISH        CLEAR     73  57  56 W12       29.96R
BIG FORK       CLEAR     63  61  94 SW1       29.96R
LONGVILLE      CLEAR     64  63  94 CALM      29.99R
GRAND RAPIDS   CLEAR     64  61  88 CALM      29.98R
CRANE LAKE     CLEAR     64  63  94 CALM      29.94R
ORR            CLEAR     64  63  94 CALM      29.92R
COOK           CLEAR     63  63 100 CALM      29.95R
$$
MNZ012-019>021-037-120400-
   Northeast Minnesota

CITY           SKY/WX    TMP DP  RH WIND       PRES   REMARKS
DULUTH         PTCLDY    68  64  87 SW10      29.98R
ELY            CLEAR     64  61  88 SW5       29.95R
HIBBING        CLEAR     65  62  90 CALM      29.96R
EVELETH        CLEAR     63  59  88 CALM      29.98R
DULUTH HARBOR  PTCLDY    66  64  94 W3        29.96S
TWO HARBORS    MOCLDY    66  61  82 SW7       29.94R HAZE
SILVER BAY     MOCLDY    66  66 100 CALM      29.92R
GRAND MARAIS     N/A     48  47  96 W3        29.92S
G MARAIS ARPRT CLOUDY    64  63  94 SW3       29.97S FOG
$$
MNZ029>031-032-039>041-046>048-054>057-064-120400-
   West Central Minnesota

CITY           SKY/WX    TMP DP  RH WIND       PRES   REMARKS
FERGUS FALLS   CLEAR     75  63  64 CALM      29.98R
WHEATON        CLEAR     75  64  69 CALM      30.00R
MORRIS         PTCLDY    75  70  83 NE5       29.98R
ALEXANDRIA     CLEAR     76  68  76 CALM      30.02R
ELBOW LAKE     FAIR      73  68  83 CALM      29.99R
WADENA         CLEAR     70  64  83 NW5       30.00R
GLENWOOD       CLEAR     75  70  83 CALM      30.01R
APPLETON       PTCLDY    81  72  74 CALM      29.97R
BENSON         PTCLDY    77  72  83 CALM      29.98R
ORTONVILLE     PTCLDY    79  70  73 N3        29.98R
MADISON        PTCLDY    82  72  69 CALM      29.98R
WILLMAR        FAIR      77  70  78 SE3       30.00R
$$
MNZ033>034-036-042>043-049>051-058-059-120400-
   Central Minnesota

CITY           SKY/WX    TMP DP  RH WIND       PRES   REMARKS
ST CLOUD       CLEAR     74  71  91 SE3       29.98R
SAUK CENTRE    MOCLDY    78  71  80 CALM      30.00R
PAYNESVILLE    CLEAR     72  69  92 SE3       30.00R
AITKIN         CLEAR     72  66  83 CALM      29.97R
PINE RIVER     CLEAR     70  66  88 CALM      30.02R
BRAINERD       CLEAR     80  66  62 NW6       29.98R
STAPLES        CLEAR     72  64  78 CALM      29.99R
LONG PRAIRIE   FAIR      73  68  83 W3        30.01R
LITTLE FALLS   PTCLDY    73  70  88 CALM      29.99R
LITCHFIELD     CLEAR     75  75 100 CALM      30.00R
BUFFALO        CLEAR     74  70  86 CALM      30.00R
MAPLE LAKE     CLEAR     74  73  96 CALM      30.00R
$$
MNZ037-044-045-052-053-120400-
   East Central Minnesota

CITY           SKY/WX    TMP DP  RH WIND       PRES   REMARKS
PRINCETON      CLEAR     73  72  94 S3        29.99R
MORA           CLEAR     70  66  88 CALM      30.00R
CAMBRIDGE      CLEAR     75  66  73 CALM      29.98R
RUSH CITY      PTCLDY    70  68  92 CALM      30.00R
MOOSE LAKE     PTCLDY    70  68  94 S5        29.97R
HINCKLEY       FAIR      72  70  94 NW3       30.00R
CLOQUET        MOCLDY    72  66  83 SE3       29.99R
MCGREGOR       CLEAR     70  68  94 CALM      29.99R
$$
MNZ071>073-080-081-089-090-097-098-120400-
   Southwest Minnesota

CITY           SKY/WX    TMP DP  RH WIND       PRES   REMARKS
MONTEVIDEO     PTCLDY    79  72  78 CALM      29.99R
GRANITE FALLS  MOCLDY    76  71  84 S5        30.00R
CANBY          MOCLDY    75  70  85 CALM      30.00R
MARSHALL       MOCLDY    79  72  78 SW7       29.98R
REDWOOD FALLS  MOCLDY    77  73  87 SE5       29.98R
OLIVIA         PTCLDY    77  72  83 SE3       29.98S
PIPESTONE      PTCLDY    73  70  88 CALM      30.03R
WINDOM         CLEAR     75  70  83 SW3       30.02R
WORTHINGTON    PTCLDY    72  70  94 SW5       30.04R
JACKSON        CLEAR     72  68  88 CALM      30.03R
TRACY          PTCLDY    77  73  87 SW9       30.01R
SLAYTON        PTCLDY    72  71  96 CALM      30.03R FOG
$$
MNZ065>067-074>077-082>085-091>093-120400-
   South Central Minnesota

CITY           SKY/WX    TMP DP  RH WIND       PRES   REMARKS
MANKATO        CLEAR     75  66  73 SE7       30.00R
NEW ULM        PTCLDY    77  73  88 CALM      29.99R
ST JAMES       CLEAR     75  70  83 CALM      30.01R
FAIRMONT       CLEAR     72  66  83 S5        30.01R
GLENCOE        CLEAR     75  70  84 CALM      29.98S
FARIBAULT      PTCLDY    77  64  65 S7        30.02R
OWATONNA       PTCLDY    73  66  78 SE5       30.03R
WASECA         PTCLDY    72  63  73 S6        30.03R
ALBERT LEA     CLEAR     72  66  83 S6        30.04R
$$
MNZ078>079-086>088-094>096-120400-
   Southeast Minnesota

CITY           SKY/WX    TMP DP  RH WIND       PRES   REMARKS
ROCHESTER      PTCLDY    70  66  87 S6        30.06R
RED WING       MOCLDY    75  66  73 CALM      30.00R
STANTON        PTCLDY    74  67  78 S3        30.00R
DODGE CENTER   MOCLDY    72  68  88 S7        30.04R
WINONA         MOCLDY    73  68  83 SE3       30.03S
AUSTIN         CLEAR     72  66  83 CALM      30.04R
PRESTON        CLEAR     71  67  87 S5        30.06R
$$
ABBREVIATIONS USED IN REMARKS
   TC - TEMPERATURES IN CELSIUS
  WCI - WIND CHILL INDEX
   HX - HEAT INDEX
  VSB - VISIBILITY
$$



USA.gov is the U.S. government's official web portal to all federal, state and local government web resources and services.